Location: Gilevgi
(36.8751°N, 30.0581°E)
Time: 09:26:17
(UTC+00:00)

Okean 1-7 Rocket - Pass Details

Date: 16 March 2026
Orbit: 609 x 643 km, 82.5° (Epoch: 19 April)

Event Time Altitude Azimuth Distance (km) Brightness Sun altitude
Rises 16:24:49 0° 192° (SSW) 2,935 7.2 -4.2°
Reaches altitude 10° 16:27:04 10° 195° (SSW) 2,031 6.4 -4.7°
Maximum altitude 16:31:33 67° 278° (W) 700 4.2 -5.6°
Drops below altitude 10° 16:36:04 10° 1° (N) 2,042 6.3 -6.5°
Sets 16:38:21 0° 4° (N) 2,953 7.0 -6.9°
